Location: ????
(30.1475°N, 31.1342°E)
Time: 08:01:23
(UTC+00:00)

Cosmos 1484 Rocket - Pass Details

Date: 27 September 2022
Orbit: 499 x 552 km, 97.5° (Epoch: 28 November)

Event Time Altitude Azimuth Distance (km) Brightness Sun altitude
Rises 02:35:39 0° 356° (N) 2,732 6.4 -16.1°
Reaches altitude 10° 02:38:02 10° 344° (NNW) 1,835 5.4 -15.6°
Maximum altitude 02:41:21 26° 287° (WNW) 1,102 3.8 -14.9°
Enters shadow 02:41:51 26° 274° (W) 1,122 3.8 -14.8°
